COSMOS 2251 DEB

Satellite information

Favourite Embed

Satellite Type and Status

DEBRISIN ORBIT

Key statistics

Satellite COSMOS 2251 DEB at a glance.

Uptime

11818

Days in orbit

Revolutions

≈ 14.8

Per day

Orbit

LEO

Low Earth Orbit

Inclination

74.0

Latest

Satellite identification and parameters

Extended collection of information and parameters for COSMOS 2251 DEB.

Object identification

Identified? True

Debris? True

Object name: COSMOS 2251 DEB

International designator: 1993-036ANR

Object number (NORAD): 35650

Object ID (CCSDS): 35650

Country: COMMONWEALTH OF INDEPENDENT STATES (CIS)

Current information (Y/N): Y

RCS size: SMALL

Orbital parameters

Period: 97.205 minutes

Inclination: 74.0439 deg

SMA: 7003.047 km

Apoapsis: 638.451 km

Periapsis: 611.374 km

RAAN: 119.2678 deg

Eccentricy: 0.0019332

Argument of periapsis: 190.9573 deg

Mean anomaly: 321.3113 deg

Mean motion: 14.81399448 rev/day

Mean motion (dot): 0.00017938 rev/day2

B* drag term: 0.0022842 1/REarth

Two-line elements (TLE)

Creation date: Oct. 23, 2025, 6:36 a.m.

Reference frame: TEME

Reference center: EARTH

Epoch: Oct. 22, 2025, 10:42 p.m. UTC

TLE line 0: 0 COSMOS 2251 DEB

TLE line 1: 1 35650U 93036ANR 25295.94640358 .00017938 00000-0 22842-2 0 9990

TLE line 2: 2 35650 74.0439 119.2678 0019332 190.9573 321.3113 14.81399448868810

Live tracking on map

Real-time ground track for satellite COSMOS 2251 DEB.

In-orbit conjunctions

A list of the most updated potential collisions computed for object COSMOS 2251 DEB.

Target Orbit TCA Probability of collision Miss distance Type
DELTA 1 DEB SSO 2024-11-13 08:46:22 0.0004991871 271.0 (m) DEBRIS
DMSP 5D-2 F11 DEB SSO 2024-09-24 20:55:39 0.0009650823 357.0 (m) DEBRIS

Associated space launch

Military communications satellite. Destroyed in a collision with Iridium 33.

COSMOS 2251 DEB was lifted into orbit during the mission ‘Kosmos-3M | Strela-2M 51’, on board a Kosmos-3M space rocket.

The launch took place on June 16, 1993, 4:17 a.m. from 132/1 (132L).

For more information about the launch, click the button.

Launch to space Kosmos-3M | Strela-2M 51
Kosmos-3M | Strela-2M 51

Agency: N/A

Status: Launch Successful

Launch date: June 16, 1993, 4:17 a.m. UTC

Rocket: Kosmos-3M

Launch pad: 132/1 (132L)

Location: Plesetsk Cosmodrome, Russian Federation

...

Latest news about this satellite

There are no fresh news available about this satellite. Check back as we update our databases every day.


Newsletter sign-up

Weekly statistics, charts and insights to help you stay on top of the space industry.